CAPE
629 502 810 868 581 495 319 499 403 451 511 543 594 714 598 472 414 524 613 772 770 809 926 1008 1050 1044 1021 882 900 835 787 786 717 787 782 693 612 689 580 393 387 470 566 686 728 708 772 304 146 144 509 208 552 924 702 644 673 646 513 480 448 342 169 37 78 317 399 488 691 730 908 1158 1199 1576 1774 1719 1927 3222 2114 2496 2543 3132 2781 2790 2748
650 547 743 730 718 659 642 593 530 540 610 805 793 762 724 598 505 568 656 730 856 822 971 1076 1102 1219 1270 1232 1116 992 1036 1153 1049 937 840 645 584 522 494 475 498 508 476 531 566 582 689 720 643 669 414 424 183 858 602 449 435 380 460 579 670 476 578 668 270 296 324 408 670 730 671 967 1198 1268 1642 1854 1774 1837 3216 3224 3760 3452 3303 3162 2733
646 680 634 769 772 851 818 700 782 772 798 919 828 642 675 732 666 614 652 606 722 838 859 915 1157 1219 1238 1321 1189 1112 1054 1027 1047 944 821 663 598 492 348 348 238 198 226 287 232 137 370 712 584 347 363 190 182 663 522 412 352 292 283 528 615 384 448 570 509 425 343 337 490 602 723 943 1006 1082 1475 1787 1910 1894 2384 2640 2899 1984 2682 2930 2159
354 536 593 534 663 900 774 755 750 624 554 726 804 723 629 817 854 796 756 775 780 800 951 1013 1104 1118 1124 1234 1198 1250 1008 1014 813 773 863 774 750 581 395 282 270 230 193 254 223 306 439 449 429 490 464 415 266 195 512 492 504 427 294 292 406 514 474 602 671 493 547 469 458 450 634 824 1080 1038 980 1486 1846 1830 1653 1222 1764 1532 2330 2549 2414
436 454 558 460 390 736 583 582 544 605 734 478 505 431 292 377 825 986 920 862 961 944 1033 1119 1133 1158 996 1204 1443 1419 1116 904 754 825 910 1006 984 642 594 700 612 538 450 437 250 255 228 327 288 350 283 432 180 149 552 596 552 509 371 302 298 287 380 444 571 518 455 414 352 532 703 662 776 1052 1182 1328 1545 1366 1234 1232 1642 1944 2170 2284 2124
396 397 384 336 391 331 371 432 512 634 701 692 708 726 838 1112 1192 1029 1065 910 974 1116 1247 1298 1290 1352 1312 1474 1718 1523 1211 1108 921 798 736 649 558 632 549 448 470 446 366 394 221 284 176 236 225 303 402 366 276 470 687 693 620 523 477 315 264 254 336 423 473 450 440 439 316 470 592 747 1032 980 1152 1417 1228 1422 1647 1869 1807 1923 2030 2408 2312
787 558 461 380 474 395 294 340 708 668 811 896 1117 1026 1003 828 726 870 826 775 806 1065 1278 1448 1460 1505 1491 1503 1608 1456 1281 1122 824 779 890 878 724 569 404 251 192 211 221 232 192 171 296 210 213 280 469 546 622 695 690 647 587 464 493 354 338 269 254 336 356 299 384 444 522 460 537 778 929 968 1273 1378 1072 816 1234 898 1977 1862 2090 1932 2278
830 698 691 759 720 482 374 522 846 992 920 1070 1264 1346 1332 1384 1322 1206 1098 900 917 1108 1275 1367 1480 1515 1588 1557 1624 1556 1401 1056 826 892 1005 936 669 323 244 171 188 176 150 136 124 98 210 310 185 216 500 712 500 199 396 746 704 732 542 474 394 319 214 302 361 243 365 370 325 450 512 630 921 970 933 1499 1462 928 422 1004 1655 1608 1738 2033 2017
914 830 927 854 808 743 810 880 1018 1078 1036 1209 1366 1466 1448 1394 1330 1193 1096 1148 1140 1308 1432 1526 1533 1598 1588 1643 1571 1440 1367 988 870 757 588 598 385 133 134 176 181 140 112 131 84 55 143 299 327 194 378 400 242 267 246 235 838 786 328 502 572 374 305 389 368 392 354 294 294 349 467 607 691 956 1074 1090 1015 1202 1326 1520 1454 1470 2019 2370 2424
916 908 826 880 926 1002 1104 1192 1153 1198 1162 1179 1321 1335 1223 1284 1170 1151 1134 1171 1278 1470 1662 1658 1572 1542 1586 1621 1486 1398 1370 968 554 111 124 181 166 90 130 174 169 74 52 25 9 10 15 192 375 277 247 248 208 170 189 206 264 531 418 243 168 3 310 427 286 224 204 202 206 280 368 449 565 872 1006 906 970 978 1240 1472 1251 1196 1649 1839 1695
996 865 909 984 1052 1212 1311 1265 1226 1157 1202 1159 1246 1328 1324 1212 1134 1195 1296 1387 1528 1576 1703 1700 1548 1506 1548 1572 1518 1208 1024 938 170 161 146 203 216 114 172 130 76 38 8 10 7 10 7 4 25 144 232 176 136 138 212 232 282 227 132 148 144 219 498 434 401 362 292 101 324 302 386 395 338 892 845 696 744 1110 983 1122 966 1113 1256 1470 1510
768 917 920 1040 1202 1210 1207 1251 1210 1188 1182 1178 1268 1307 1177 1108 1190 1338 1444 1528 1600 1642 1719 1754 1691 1657 1633 1650 1581 1290 1193 558 195 312 350 279 240 119 237 146 34 18 6 12 8 8 8 7 6 4 126 272 397 593 255 102 115 126 142 146 173 172 234 479 325 508 478 189 179 444 523 354 304 523 800 786 954 898 946 1062 1218 1026 908 1303 1406
874 954 1061 1126 1205 1237 1234 1168 1140 1194 1247 1262 1311 1174 1147 1216 1315 1463 1473 1458 1483 1704 1810 1703 1699 1781 1798 1775 1638 1378 1243 826 302 428 463 340 252 76 242 134 47 21 2 6 5 16 10 9 8 5 4 0 68 115 95 466 202 7 0 0 64 106 142 94 65 234 300 366 481 540 398 309 351 510 528 777 762 736 772 898 957 1011 867 1131 1523
924 851 1045 1231 1282 1314 1300 1223 1130 1202 1330 1320 1209 1155 1236 1322 1416 1366 1360 1524 1702 1812 1857 1972 1953 1982 1898 1898 1721 1456 1282 874 423 640 572 400 266 112 208 102 55 33 5 2 5 16 15 6 8 4 13 3 4 6 12 16 340 271 49 0 0 4 14 23 88 16 81 156 166 136 219 584 503 512 597 700 630 608 782 844 790 801 889 939 1283
1011 957 1021 1185 1284 1271 1230 1272 1250 1260 1300 1229 1156 1163 1323 1421 1480 1456 1422 1514 1675 1804 1953 1939 1756 1700 1700 1766 1876 1713 1555 899 590 641 711 398 257 165 262 130 96 65 29 2 3 6 14 11 4 0 0 1 4 1 2 3 8 134 172 58 15 11 1 0 5 34 32 64 100 256 354 557 664 578 502 612 614 683 713 844 882 962 1144 1219 1660
993 1118 1103 1116 1172 1334 1408 1374 1382 1302 1263 1258 1234 1258 1337 1410 1424 1464 1508 1648 1879 2075 2088 2065 1840 1706 1630 1826 1898 1992 1890 923 438 508 657 449 234 475 312 209 133 68 37 1 2 6 11 12 12 10 5 2 1 0 0 1 3 6 56 437 188 76 42 0 0 0 18 130 144 138 190 194 222 530 518 650 735 650 776 836 865 1062 1393 1398 1066
1036 1226 1216 1204 1280 1366 1446 1367 1323 1318 1322 1196 1218 1160 1276 1229 1374 1618 1558 1651 1764 1902 1996 1887 1931 1750 1644 1780 2032 2009 1932 1597 548 465 536 537 233 542 336 167 157 86 52 22 6 0 2 6 7 5 4 3 4 8 2 0 3 4 38 227 250 139 25 46 0 0 0 0 0 0 0 0 69 198 248 323 619 625 363 587 690 905 1034 842 532
1190 1364 1335 1334 1355 1370 1402 1317 1187 1229 1384 1314 1227 1164 1117 1230 1451 1520 1486 1516 1604 1698 1762 1857 1960 1967 1610 1566 1430 1538 1378 1542 878 611 658 659 283 420 332 273 186 126 64 28 16 0 1 0 0 2 7 4 5 9 6 8 2 2 8 11 51 89 195 113 110 0 0 0 0 0 0 0 0 110 194 228 248 284 1061 276 518 418 608 610 618
1399 1455 1513 1515 1387 1275 1240 1293 1271 1235 1370 1371 1255 1110 1177 1246 1260 1424 1375 1428 1583 1912 1950 1946 1886 1760 1412 1364 1299 1274 1128 1318 1258 843 843 858 347 654 438 342 237 161 81 58 44 16 8 12 6 0 2 0 0 1 2 5 18 62 124 84 14 49 147 231 146 75 21 0 4 11 40 14 0 119 200 92 125 144 298 178 323 644 597 580 209
1766 1774 1595 1406 1336 1319 1307 1246 1416 1510 1485 1536 1439 1298 1345 1356 1246 1174 1230 1182 1229 1364 1840 1760 1741 1292 1216 1486 1100 1385 1213 1329 1758 1364 982 936 534 270 666 449 284 216 139 117 54 32 34 36 42 39 6 0 0 1 6 9 5 49 124 140 9 18 158 258 302 248 114 10 6 22 40 130 119 169 369 66 82 90 224 320 776 696 468 549 586
1867 1678 1572 1399 1304 1294 1325 1388 1432 1583 1609 1371 1298 1213 1568 1231 1170 1284 1048 904 1307 1624 1532 1455 1356 1419 1334 1285 1182 1112 979 962 1398 1496 1178 1022 784 319 507 595 510 316 194 157 98 54 52 52 63 83 55 8 0 0 0 4 3 36 119 137 29 110 138 341 402 89 253 44 42 26 56 356 215 176 223 109 78 123 289 565 606 537 450 439 657
1616 1522 1460 1406 1365 1344 1425 1560 1648 1555 1770 1620 1579 1671 1486 1084 882 1103 980 1224 1338 1096 1102 1195 1338 1369 1436 1204 1302 1378 1256 802 1020 1336 1148 978 934 712 423 507 571 376 266 218 221 147 85 104 90 96 94 60 2 0 0 0 5 14 31 56 34 33 74 742 870 140 310 103 65 116 76 348 278 311 325 256 204 200 296 561 412 369 483 629 724
1481 1401 1372 1344 1354 1359 1462 1662 1817 1550 727 474 741 763 799 749 974 1101 1199 1162 1052 883 821 921 865 750 924 1231 1538 1483 1494 1556 996 954 744 428 353 460 492 462 491 549 374 299 289 324 227 206 151 127 93 96 64 23 0 0 0 10 2 22 49 78 51 336 222 208 185 142 111 68 127 294 300 146 259 294 174 326 714 1058 906 858 1224 1083 579
1340 1239 1247 1364 1397 1352 1278 1244 1220 728 655 613 645 942 596 513 487 938 777 862 950 847 844 978 913 630 603 674 1041 1200 1403 1476 1275 728 618 210 3 0 0 64 402 577 474 376 350 359 288 327 189 124 91 85 80 77 36 3 0 6 4 19 6 62 209 158 246 246 92 104 164 131 212 283 476 500 207 326 799 892 844 772 667 490 723 571 551
1345 1334 1357 1396 1393 1268 1106 1044 954 925 651 722 534 968 731 505 496 521 667 382 585 715 791 636 804 744 866 882 1076 1164 1269 1219 1130 1307 246 6 0 0 0 0 57 160 308 476 436 357 329 288 199 122 76 88 72 114 93 39 11 0 10 7 2 2 25 111 122 113 76 111 110 127 240 412 624 733 562 375 510 462 274 192 215 371 367 423 432
1400 1277 1278 1212 1189 1028 866 806 870 636 666 649 845 992 646 416 444 690 806 610 601 629 356 461 484 496 630 563 633 849 1051 1409 1353 1234 631 302 142 4 0 0 0 0 18 236 180 115 188 169 137 97 63 108 85 112 105 71 46 25 12 6 21 16 5 1 2 45 87 10 8 54 83 130 135 126 156 158 158 20 110 50 38 188 284 366 285
1320 1266 1188 1010 1130 974 855 660 488 417 519 526 655 713 852 727 696 576 625 696 549 550 374 386 428 399 460 440 482 710 877 1135 1189 395 90 74 110 46 80 188 44 28 429 408 120 210 183 204 130 72 78 98 124 102 101 95 112 84 52 36 25 39 16 12 8 2 7 39 88 112 5 35 42 0 6 35 15 6 3 82 56 132 196 383 316
1018 854 664 833 699 520 546 284 524 576 385 422 418 675 997 478 521 531 634 583 520 442 404 494 454 386 291 270 405 585 572 665 281 0 0 0 0 0 0 0 0 25 169 106 21 117 366 249 270 264 300 260 320 235 179 144 136 112 108 83 56 41 16 0 2 3 0 2 10 12 14 28 46 17 0 0 0 3 0 8 60 89 118 262 330
950 700 606 355 273 355 212 259 268 278 548 667 676 938 828 395 551 799 125 44 31 28 160 172 50 0 0 36 102 180 228 180 0 0 0 0 0 0 0 0 0 0 0 0 1 316 364 250 196 122 146 180 224 232 171 138 134 178 169 136 163 104 60 9 0 0 0 5 6 3 6 6 3 2 20 8 3 0 10 1 31 61 69 24 92
508 272 206 132 48 65 193 180 266 232 172 260 445 476 271 0 244 789 25 0 0 44 0 0 38 105 76 1 3 1 1 2 0 0 0 0 0 0 0 0 0 0 0 0 0 106 302 184 110 93 77 106 115 123 100 54 98 212 233 186 188 145 117 84 35 7 5 11 18 19 9 1 1 4 4 12 7 0 1 6 19 30 37 57 91
378 218 167 107 133 288 209 208 214 268 186 302 373 257 263 2 0 0 0 0 67 98 44 104 130 115 13 0 0 0 0 0 0 0 0 0 0 0 0 0 0 0 0 0 150 217 205 208 135 84 42 38 43 66 65 56 82 199 219 328 253 187 164 146 110 100 78 73 80 90 57 18 8 19 20 4 2 0 1 0 8 0 31 34 52
451 245 145 232 564 255 226 245 270 214 217 318 497 437 498 748 36 0 0 0 57 82 92 125 130 67 0 0 0 1 0 0 0 0 0 0 0 0 0 0 0 0 0 0 348 117 87 47 6 0 0 0 0 17 30 40 82 162 208 300 210 220 200 169 128 201 159 158 112 75 78 70 53 0 3 11 14 10 16 20 11 12 1 10 5
185 50 160 284 160 204 105 206 248 217 235 348 554 675 600 722 646 149 24 0 1 113 144 115 76 0 0 0 0 0 0 0 0 0 0 0 0 0 0 0 0 0 0 0 0 0 0 0 0 0 0 0 0 0 0 0 66 60 59 127 180 201 225 165 145 226 181 115 174 132 120 102 104 87 26 8 5 13 22 26 24 11 10 17 4
66 110 110 131 290 468 447 462 416 440 425 480 670 1002 977 612 587 319 28 2 2 0 62 36 0 0 0 0 0 0 0 0 0 0 0 0 0 0 0 0 0 0 0 0 1 0 0 0 0 0 0 12 7 0 0 0 0 13 75 68 62 107 130 153 176 194 242 240 225 182 148 140 104 110 98 93 52 19 10 8 29 26 13 13 8
456 265 101 234 486 582 502 543 436 511 296 408 586 437 133 35 20 12 27 22 3 4 3 1 0 0 0 0 0 0 0 0 0 0 0 0 0 0 0 0 16 3 0 0 0 0 0 0 0 0 0 0 2 2 0 0 0 0 0 0 60 91 95 106 118 116 115 111 87 80 93 126 125 123 105 81 78 67 49 50 71 104 77 45 44
839 912 694 490 495 428 311 276 292 162 82 67 72 84 88 17 2 1 2 0 2 2 1 1 2 0 0 0 0 0 0 0 0 0 0 0 0 0 0 0 0 0 0 0 0 0 0 0 0 0 0 0 0 10 12 11 0 0 0 0 0 6 26 68 86 96 109 112 90 71 100 95 105 141 180 172 90 88 118 107 71 64 92 57 31
846 831 756 450 228 320 278 141 10 8 11 23 26 62 52 6 32 21 49 37 14 1 0 1 2 1 1 1 0 0 0 0 0 0 0 0 0 0 0 0 0 0 0 0 0 0 0 0 0 0 0 0 0 0 0 0 0 0 0 0 0 0 0 0 0 0 39 84 105 100 84 62 14 30 128 190 152 128 88 70 74 59 68 52 46
601 618 680 292 211 226 128 31 0 88 86 50 72 65 37 15 17 16 7 2 0 1 2 2 0 1 1 1 0 2 0 0 0 0 0 0 0 0 0 1 0 0 0 0 0 0 0 0 0 0 0 0 9 40 35 18 0 0 0 0 0 0 0 0 0 0 0 0 35 90 96 82 78 24 12 128 115 97 72 102 141 102 83 80 86
284 68 3 12 85 156 60 1 21 119 12 16 27 39 26 16 2 2 1 2 2 1 3 2 0 1 1 1 2 2 0 1 1 1 1 0 0 0 0 0 0 1 0 0 0 0 0 0 0 0 0 0 4 0 9 30 16 0 0 0 0 0 0 0 0 0 0 0 3 48 80 85 83 82 66 56 75 106 123 151 105 107 120 117 152
191 180 28 2 22 18 22 5 9 14 62 32 16 14 3 4 5 2 3 3 4 4 4 1 2 1 2 1 1 3 1 2 3 2 1 1 0 1 0 0 0 0 0 0 0 0 0 0 0 3 1 6 4 3 0 24 2 20 0 0 0 0 0 0 0 0 0 0 0 28 37 70 82 92 99 66 74 87 95 121 140 92 92 63 148
72 56 25 16 7 81 52 53 44 28 9 6 5 3 4 4 4 3 2 2 5 6 7 2 3 3 4 2 4 10 7 4 4 4 4 2 2 1 0 0 0 1 2 0 0 0 1 0 0 0 1 6 11 12 12 7 13 11 0 0 0 0 0 0 0 0 0 0 0 0 12 17 60 60 57 80 104 106 100 100 132 135 78 82 84
0 0 2 1 0 63 88 75 6 8 11 7 8 4 3 3 4 4 4 4 7 8 8 3 7 6 4 2 3 8 2 6 7 7 4 4 6 4 2 0 1 1 1 1 2 0 0 0 0 0 0 0 0 3 6 11 8 10 8 4 2 0 0 0 0 0 0 0 0 0 0 0 35 42 10 0 58 100 118 116 106 98 124 49 57
1 0 2 4 2 10 18 2 0 3 13 14 9 5 4 4 4 5 5 5 6 6 6 4 6 8 7 8 6 4 1 4 8 5 4 4 6 4 2 0 3 1 1 0 0 0 0 0 0 0 0 0 0 0 0 1 2 2 2 1 0 0 0 0 0 0 0 0 0 0 0 0 0 1 0 25 0 0 17 111 119 109 108 110 122
8 6 0 1 1 4 1 2 2 0 1 2 3 3 4 4 5 5 4 6 6 8 3 6 8 6 9 9 6 2 2 3 4 5 7 8 5 3 7 5 5 4 1 0 0 0 0 0 0 0 0 0 0 0 0 0 0 0 0 0 0 0 0 0 0 0 0 0 0 0 0 0 0 0 0 0 0 24 0 52 72 88 81 90 88
4 2 0 0 2 0 0 0 0 0 0 0 1 2 3 4 5 5 6 5 6 4 4 4 1 4 8 6 5 1 1 2 4 5 5 4 2 1 1 1 2 4 5 4 2 3 0 0 0 0 0 0 0 0 0 0 0 0 0 0 0 0 0 0 0 0 0 1 0 0 0 0 0 0 0 0 0 0 0 0 6 48 44 1 2
0 0 0 0 0 0 0 0 0 0 0 0 0 0 1 3 4 7 7 5 2 2 2 0 1 4 5 5 2 0 2 1 1 5 6 6 3 2 2 1 1 0 0 0 4 4 0 0 0 0 0 0 1 0 0 0 0 0 0 0 0 0 0 3 5 3 3 4 2 0 0 0 0 0 3 0 0 0 0 0 0 7 28 16 8
0 0 0 0 0 0 0 0 0 0 0 0 0 0 0 3 5 7 8 4 0 0 1 0 0 0 0 0 0 0 0 0 2 0 1 5 6 5 4 0 0 1 0 0 0 0 0 0 0 0 0 0 0 0 0 0 0 0 0 0 0 0 0 0 0 0 0 1 2 1 0 0 0 0 0 0 1 1 2 2 2 2 18 7 0
0 0 0 0 0 0 0 0 0 0 0 0 0 0 0 2 5 5 6 6 2 0 1 0 0 0 0 0 0 0 0 0 0 0 0 0 1 2 4 3 0 0 0 0 0 0 0 0 0 0 0 0 0 0 0 0 0 0 0 0 0 1 1 0 0 0 1 2 2 2 0 0 0 1 1 2 1 2 2 3 4 6 6 14 5
0 0 0 0 0 0 0 0 0 0 0 0 0 0 0 1 4 4 5 7 6 7 5 1 0 0 0 0 0 0 0 0 0 0 0 0 0 2 0 1 2 0 0 0 0 0 0 0 0 0 0 0 0 0 0 0 0 0 0 0 0 0 0 0 1 0 0 0 0 0 0 0 0 1 2 2 2 2 2 2 6 4 4 6 3
0 0 0 0 0 0 0 0 0 0 0 0 0 0 0 1 4 4 2 3 5 2 2 2 3 1 0 0 0 0 0 0 0 0 0 0 0 0 0 1 0 0 0 0 0 0 0 0 0 0 0 0 0 0 0 0 0 0 0 0 0 0 0 0 0 0 0 0 0 0 0 0 0 0 0 1 1 0 1 1 2 2 5 12 13
0 0 0 0 0 0 0 0 0 0 0 0 0 0 1 0 3 4 7 6 0 4 1 2 3 2 0 2 3 0 0 0 0 0 0 0 0 0 0 0 0 0 0 0 0 0 0 0 0 0 0 0 0 0 0 0 0 0 0 0 0 0 0 1 0 0 0 0 0 0 0 0 0 1 2 2 1 0 2 2 2 9 8 5 4
Wind_Speed
34 33 34 34 35 35 36 37 37 38 37 37 38 38 40 40 39 37 35 33 31 29 29 29 31 32 32 33 33 29 27 26 27 27 27 27 30 31 31 31 32 33 33 30 32 33 34 32 29 28 30 28 31 37 34 35 37 38 39 39 37 37 35 nan nan 33 37 38 36 34 34 32 31 30 28 31 33 37 35 35 35 39 39 39 38
34 33 34 34 34 35 35 36 37 37 37 38 38 39 40 41 39 37 34 32 31 30 31 33 33 32 31 32 32 31 29 27 27 27 27 27 29 33 33 32 32 32 34 32 31 35 35 33 30 31 30 32 27 36 36 35 37 37 37 37 37 37 38 36 34 34 35 40 38 36 34 33 31 29 28 29 29 30 33 37 39 39 41 39 37
35 35 34 34 35 36 37 37 38 37 37 37 38 39 40 41 40 37 34 32 31 32 32 33 33 31 31 32 32 31 30 28 28 27 27 26 27 29 30 30 30 31 32 33 33 34 34 35 33 32 36 34 27 33 36 34 37 37 35 37 37 36 37 35 34 34 33 36 40 40 38 35 31 29 27 29 30 30 29 33 35 38 38 38 37
35 36 35 34 35 36 37 37 38 38 37 38 38 38 40 41 40 37 34 33 32 32 34 34 34 31 30 32 33 32 29 28 27 26 26 26 25 25 26 26 27 27 29 31 33 35 35 36 35 32 34 36 32 32 36 37 38 39 36 37 37 36 37 36 34 37 37 37 39 40 41 38 35 30 28 28 28 28 28 28 30 32 35 38 38
37 36 36 35 36 37 37 38 38 38 38 38 38 39 39 40 39 36 34 33 33 34 35 36 34 32 30 32 34 32 29 27 26 25 25 25 24 23 22 23 24 24 25 27 30 33 33 35 35 33 32 35 32 30 33 34 36 38 37 37 38 37 39 38 37 37 36 34 37 41 42 40 37 33 29 28 27 25 24 25 30 31 31 34 36
38 37 37 37 37 37 38 38 38 38 39 39 40 40 41 41 39 36 35 33 33 35 35 35 34 32 32 33 34 33 30 29 27 24 23 23 23 23 23 24 24 24 24 25 27 30 32 32 34 34 32 30 29 29 31 32 34 35 35 35 37 39 40 40 40 38 36 34 34 40 43 41 39 34 31 27 25 24 24 26 28 28 29 30 32
40 40 39 39 39 39 39 39 40 39 40 41 42 43 42 41 38 34 33 33 33 34 35 34 34 34 33 34 34 33 31 30 29 26 22 21 21 21 22 25 26 26 25 24 26 28 29 30 31 32 31 31 30 30 30 31 34 32 33 34 36 39 39 40 41 39 37 34 35 38 42 43 41 38 35 30 25 22 24 24 26 27 27 27 30
42 41 41 41 41 41 41 41 41 42 41 42 43 43 42 42 39 36 34 33 33 34 35 35 35 36 36 35 35 34 32 31 30 27 25 23 22 20 20 21 23 22 22 23 24 nan 27 27 27 29 29 29 29 27 27 30 33 35 35 35 36 37 37 38 39 39 37 36 36 38 41 43 44 40 39 36 29 24 20 22 25 27 27 28 28
43 42 42 41 42 42 43 43 44 43 42 42 43 42 42 40 39 36 34 34 35 35 37 37 36 36 36 35 34 33 32 31 32 30 26 24 24 22 19 18 21 22 23 26 nan nan 25 24 24 25 27 28 24 25 27 27 33 35 34 36 34 33 36 41 39 40 41 38 36 38 41 43 43 42 39 34 29 26 27 27 26 27 30 30 30
45 43 42 42 43 43 44 45 44 43 42 42 42 42 40 39 37 35 33 33 34 36 37 38 38 37 34 33 33 34 33 32 32 28 27 28 26 nan 19 14 18 nan nan nan nan nan nan 25 21 21 23 24 25 24 24 25 27 32 34 34 32 nan 32 37 38 40 40 37 35 35 37 40 42 42 39 36 34 32 29 28 26 27 30 29 29
45 44 42 42 43 44 44 44 44 42 42 42 42 41 39 38 36 34 33 33 34 35 37 38 37 36 33 31 31 32 32 33 30 27 25 25 26 24 19 13 nan nan nan nan nan nan nan nan nan 25 20 20 22 22 25 25 26 26 25 28 30 31 34 32 34 37 37 35 34 33 35 37 40 43 40 37 36 34 31 30 28 29 30 29 27
45 44 43 43 44 44 44 43 43 41 41 41 41 40 39 37 35 34 34 34 35 36 37 38 37 35 32 29 29 30 31 33 31 29 26 25 24 25 21 16 nan nan nan nan nan nan nan nan nan nan 34 33 28 23 22 22 23 23 22 22 24 26 28 31 34 35 34 34 31 32 34 34 38 41 41 39 38 36 33 31 30 30 28 29 27
46 44 43 44 44 45 45 44 42 41 41 40 40 39 38 36 35 35 35 36 36 37 37 37 34 32 30 27 27 28 28 31 32 29 26 25 21 nan 21 17 nan nan nan nan nan nan nan nan nan nan nan nan nan 31 nan 26 24 nan nan nan nan 24 24 nan nan 31 35 31 30 32 32 33 35 40 42 41 40 38 35 32 30 29 28 28 28
45 43 43 44 45 45 45 44 43 42 41 41 40 38 37 37 37 37 38 39 38 37 36 34 32 29 27 25 25 26 27 28 26 27 27 25 21 19 20 18 nan nan nan nan nan nan nan nan nan nan nan nan nan nan nan nan 27 29 nan nan nan nan nan nan nan nan nan 26 26 24 28 32 34 39 41 43 41 39 37 33 31 29 28 27 28
45 44 44 46 46 46 45 45 43 42 41 41 40 38 37 37 38 39 40 40 38 36 35 33 30 27 25 24 25 25 28 29 27 30 29 24 19 20 19 18 nan nan nan nan nan nan nan nan nan nan nan nan nan nan nan nan nan 28 26 nan nan nan nan nan nan nan nan nan 22 21 25 29 31 36 42 44 41 40 37 34 33 32 31 30 29
44 45 46 47 47 46 46 44 43 43 42 41 39 37 37 37 38 39 40 40 37 35 34 33 29 26 23 23 24 25 26 34 32 31 28 25 19 20 16 17 18 nan nan nan nan nan nan nan nan nan nan nan nan nan nan nan nan nan nan 25 27 nan nan nan nan nan nan 22 20 21 25 27 31 35 42 45 45 41 39 39 38 34 31 30 27
45 46 47 47 46 46 45 44 43 42 42 40 38 36 37 37 38 41 39 37 34 31 30 30 28 25 23 22 23 24 24 28 32 31 28 26 23 21 16 14 15 nan nan nan nan nan nan nan nan nan nan nan nan nan nan nan nan nan nan 26 28 28 nan nan nan nan nan nan nan nan nan nan nan 38 41 43 46 44 42 38 34 33 32 29 28
46 47 47 47 47 46 45 44 42 41 42 40 38 37 38 39 39 39 36 33 31 28 27 27 26 25 23 21 22 22 21 25 30 29 29 28 25 22 18 14 12 16 nan nan nan nan nan nan nan nan nan nan nan nan nan nan nan nan nan nan nan nan 26 25 29 nan nan nan nan nan nan nan nan 38 40 43 45 45 44 37 32 33 33 33 31
47 48 47 47 47 45 45 44 43 42 41 39 40 39 39 39 38 36 35 33 29 27 25 25 23 23 22 20 22 22 21 22 27 28 29 29 27 24 20 16 13 15 nan nan nan nan nan nan nan nan nan nan nan nan nan nan nan nan 30 nan nan nan 23 27 25 nan nan nan nan nan nan nan nan 40 40 nan 43 43 40 35 33 36 35 34 32
48 48 47 47 46 45 45 44 43 43 41 40 41 40 39 38 36 34 33 32 28 24 23 22 21 19 19 20 20 21 21 20 23 27 28 28 29 25 21 16 13 14 15 10 nan nan nan nan nan nan nan nan nan nan nan nan nan nan 36 29 nan nan 23 26 29 30 31 nan nan nan nan 37 42 38 40 nan nan nan 39 36 36 36 35 35 33
49 48 47 47 46 45 45 44 43 42 41 40 39 38 37 34 33 32 31 29 25 22 19 19 19 18 18 18 19 20 21 20 21 25 26 26 28 28 22 19 17 17 16 13 nan nan nan nan nan nan nan nan nan nan nan nan nan nan 40 35 nan 25 26 27 27 nan 31 nan nan nan nan 38 38 37 36 41 nan 44 40 38 36 35 35 35 35
49 48 47 45 44 44 44 44 44 42 41 39 35 35 35 32 30 29 28 25 22 18 17 18 18 17 17 17 19 19 21 21 20 21 23 24 25 29 25 21 19 18 16 16 13 5 nan 12 nan nan nan nan nan nan nan nan nan nan nan nan nan nan nan 30 33 30 29 30 nan 33 nan 37 37 37 36 39 39 39 39 39 37 36 35 34 35
49 48 46 44 43 43 42 43 43 46 45 40 36 33 33 28 25 26 24 23 20 17 16 17 17 16 16 18 19 19 19 20 23 20 21 22 22 24 27 24 19 21 19 15 13 10 4 5 11 12 nan nan nan nan nan nan nan nan nan nan nan nan nan 27 29 28 28 27 30 nan 34 35 36 33 35 37 37 39 42 43 41 38 38 41 45
49 47 45 43 43 43 43 44 45 46 44 42 39 36 34 28 22 21 21 21 21 18 17 18 17 16 16 16 17 18 20 19 21 22 21 21 nan nan nan nan 22 22 20 18 14 12 11 5 6 10 nan nan nan nan nan nan nan nan nan nan nan nan 40 36 23 21 nan 26 28 31 34 35 38 38 36 37 40 42 43 44 46 42 41 41 43
48 46 44 43 43 44 44 44 44 45 44 40 38 35 32 29 23 20 19 19 18 17 17 18 17 16 16 16 16 17 19 19 17 22 22 nan nan nan nan nan nan 20 20 18 14 10 7 6 4 6 nan nan nan 23 nan nan nan nan nan nan nan nan nan 40 34 35 nan 29 29 33 37 41 41 41 41 42 43 44 44 42 43 43 43 44 44
46 44 44 44 44 44 43 43 44 44 41 38 36 36 34 29 23 21 21 20 16 15 15 17 18 16 16 16 16 16 17 18 17 17 17 17 19 nan nan nan nan nan nan 18 15 11 9 9 7 nan nan 13 nan 17 18 nan nan nan nan nan nan nan nan nan nan nan nan nan nan nan nan 48 50 49 49 48 46 nan 40 nan nan 40 39 39 41
44 44 44 45 45 44 43 43 42 41 39 36 35 34 33 30 24 20 20 20 17 15 16 17 18 16 15 16 16 15 15 18 19 17 nan nan 15 nan nan 17 nan nan 19 18 16 17 13 12 11 nan nan nan 16 19 17 nan 28 nan nan nan nan nan nan nan nan nan nan nan nan 41 nan nan nan nan nan nan nan nan nan nan nan 41 38 38 39
44 45 45 45 45 44 44 44 42 39 38 35 33 32 29 26 22 19 21 22 20 17 17 18 19 18 17 17 17 15 15 17 21 nan nan nan nan nan nan nan nan nan 17 16 nan 16 16 15 13 10 7 9 12 17 19 21 24 24 27 nan nan nan nan nan nan nan nan nan nan nan nan nan nan nan nan nan nan nan nan nan nan nan 41 41 40
45 45 45 45 46 45 44 44 40 37 36 36 33 31 27 23 20 23 29 nan nan nan 18 19 nan nan nan nan 17 16 16 17 nan nan nan nan nan nan nan nan nan nan nan nan nan 16 17 17 15 10 8 7 9 15 19 22 23 20 21 27 31 34 nan nan nan nan nan nan nan nan nan nan nan nan nan nan nan nan nan nan nan nan nan nan nan
44 44 44 43 nan nan 42 41 41 38 34 33 32 30 34 nan 25 23 nan nan nan nan nan nan nan 19 nan nan nan nan nan nan nan nan nan nan nan nan nan nan nan nan nan nan nan 16 16 16 16 nan nan 6 6 10 nan nan nan 19 18 21 27 32 35 nan nan nan nan nan nan nan nan nan nan nan nan nan nan nan nan nan nan nan nan nan nan
42 42 41 39 42 43 40 40 40 39 35 33 32 28 26 nan nan nan nan nan nan nan nan 18 15 15 nan nan nan nan nan nan nan nan nan nan nan nan nan nan nan nan nan nan 17 18 16 15 15 nan nan nan nan nan nan nan nan 15 16 17 22 28 33 37 39 40 nan nan nan nan nan nan nan nan nan nan nan nan nan nan nan nan nan nan nan
40 39 38 39 42 41 39 38 36 35 35 32 28 25 21 22 nan nan nan nan nan nan nan 24 23 nan nan nan nan nan nan nan nan nan nan nan nan nan nan nan nan nan nan nan 16 17 nan nan nan nan nan nan nan nan nan nan nan 14 15 17 21 24 27 31 38 44 45 42 41 nan nan nan nan nan nan nan nan nan nan nan nan nan nan nan nan
35 nan 37 38 38 39 39 38 35 32 30 26 21 19 17 14 17 19 nan nan nan 21 25 25 nan nan nan nan nan nan nan nan nan nan nan nan nan nan nan nan nan nan nan nan nan nan nan nan nan nan nan nan nan nan nan nan nan nan nan 18 20 22 23 23 28 38 43 44 42 41 40 41 43 nan nan nan nan nan nan nan nan nan nan nan nan
nan 35 36 36 35 36 37 35 31 27 25 20 16 18 18 17 17 18 nan nan nan nan nan nan nan nan nan nan nan nan nan nan nan nan nan nan nan nan nan nan nan nan nan nan nan nan nan nan nan nan nan nan nan nan nan nan nan nan nan nan nan 19 21 20 22 26 31 35 37 37 38 38 39 41 nan nan nan nan nan nan nan nan nan nan nan
34 37 37 34 32 34 34 32 28 25 24 19 18 19 19 nan nan nan nan nan nan nan nan nan nan nan nan nan nan nan nan nan nan nan nan nan nan nan nan nan nan nan nan nan nan nan nan nan nan nan nan nan nan nan nan nan nan nan nan nan nan nan nan 19 20 21 23 26 nan nan nan 36 37 38 39 nan nan nan nan nan nan 45 nan nan nan
35 36 35 34 33 34 34 31 29 28 nan nan nan nan nan nan nan nan nan nan nan nan nan nan nan nan nan nan nan nan nan nan nan nan nan nan nan nan nan nan nan nan nan nan nan nan nan nan nan nan nan nan nan nan nan nan nan nan nan nan nan nan nan nan nan nan 19 21 nan nan 29 nan 33 34 35 37 nan nan 34 35 nan nan nan nan nan
33 34 34 35 35 34 33 31 nan nan nan nan nan nan nan nan nan nan nan nan nan nan nan nan nan nan nan nan nan nan nan nan nan nan nan nan nan nan nan nan nan nan nan nan nan nan nan nan nan nan nan nan nan nan nan nan nan nan nan nan nan nan nan nan nan nan nan nan 19 23 nan nan nan nan 28 32 34 35 nan nan nan nan nan nan nan
31 33 34 34 35 35 33 nan nan nan nan nan nan nan nan nan nan nan nan nan nan nan nan nan nan nan nan nan nan nan nan nan nan nan nan nan nan nan nan nan nan nan nan nan nan nan nan nan nan nan nan nan nan nan nan nan nan nan nan nan nan nan nan nan nan nan nan nan nan nan nan nan nan nan nan 27 29 nan nan 31 33 34 nan nan nan
34 nan nan nan nan 33 nan nan nan 30 nan nan nan nan nan nan nan nan nan nan nan nan nan nan nan nan nan nan nan nan nan nan nan nan nan nan nan nan nan nan nan nan nan nan nan nan nan nan nan nan nan nan nan nan nan nan nan nan nan nan nan nan nan nan nan nan nan nan nan nan nan nan nan nan nan nan nan 26 27 29 31 34 34 33 34
36 36 nan nan nan nan nan nan nan nan nan nan nan nan nan nan nan nan nan nan nan nan nan nan nan nan nan nan nan nan nan nan nan nan nan nan nan nan nan nan nan nan nan nan nan nan nan nan nan nan nan nan nan nan nan nan nan nan nan nan nan nan nan nan nan nan nan nan nan nan nan nan nan nan nan nan nan nan nan 28 30 nan nan nan 34
nan nan nan nan nan nan nan nan nan nan nan nan nan nan nan nan nan nan nan nan nan nan nan nan nan nan nan nan nan nan nan nan nan nan nan nan nan nan nan nan nan nan nan nan nan nan nan nan nan nan nan nan nan nan nan nan nan nan nan nan nan nan nan nan nan nan nan nan nan nan nan nan nan nan nan nan 22 23 nan nan 28 27 nan nan nan
nan nan nan nan nan nan nan nan nan nan nan nan nan nan nan nan nan nan nan nan nan nan nan nan nan nan nan nan nan nan nan nan nan nan nan nan nan nan nan nan nan nan nan nan nan nan nan nan nan nan nan nan nan nan nan nan nan nan nan nan nan nan nan nan nan nan nan nan nan nan nan nan nan nan nan nan nan 24 25 25 26 nan 28 nan nan
nan nan nan nan nan nan nan nan nan nan nan nan nan nan nan nan nan nan nan nan nan nan nan nan nan nan nan nan nan nan nan nan nan nan nan nan nan nan nan nan nan nan nan nan nan nan nan nan nan nan nan nan nan nan nan nan nan nan nan nan nan nan nan nan nan nan nan nan nan nan nan nan nan nan nan nan nan nan nan 27 27 28 29 31 31
nan nan nan nan nan nan nan nan nan nan nan nan nan nan nan nan nan nan nan nan nan nan nan nan nan nan nan nan nan nan nan nan nan nan nan nan nan nan nan nan nan nan nan nan nan nan nan nan nan nan nan nan nan nan nan nan nan nan nan nan nan nan nan nan nan nan nan nan nan nan nan nan nan nan nan nan nan nan nan nan nan nan nan nan nan
nan nan nan nan nan nan nan nan nan nan nan nan nan nan nan nan nan nan nan nan nan nan nan nan nan nan nan nan nan nan nan nan nan nan nan nan nan nan nan nan nan nan nan nan nan nan nan nan nan nan nan nan nan nan nan nan nan nan nan nan nan nan nan nan nan nan nan nan nan nan nan nan nan nan nan nan nan nan nan nan nan nan nan nan nan
nan nan nan nan nan nan nan nan nan nan nan nan nan nan nan nan nan nan nan nan nan nan nan nan nan nan nan nan nan nan nan nan nan nan nan nan nan nan nan nan nan nan nan nan nan nan nan nan nan nan nan nan nan nan nan nan nan nan nan nan nan nan nan nan nan nan nan nan nan nan nan nan nan nan nan nan nan nan nan nan nan nan nan nan nan
nan nan nan nan nan nan nan nan nan nan nan nan nan nan nan nan nan nan nan nan nan nan nan nan nan nan nan nan nan nan nan nan nan nan nan nan nan nan nan nan nan nan nan nan nan nan nan nan nan nan nan nan nan nan nan nan nan nan nan nan nan nan nan nan nan nan nan nan nan nan nan nan nan nan nan nan nan nan nan nan nan nan nan nan nan
nan nan nan nan nan nan nan nan nan nan nan nan nan nan nan nan nan nan nan nan nan nan nan nan nan nan nan nan nan nan nan nan nan nan nan nan nan nan nan nan nan nan nan nan nan nan nan nan nan nan nan nan nan nan nan nan nan nan nan nan nan nan nan nan nan nan nan nan nan nan nan nan nan nan nan nan nan nan nan nan nan nan nan nan nan
nan nan nan nan nan nan nan nan nan nan nan nan nan nan nan nan nan nan nan nan nan nan nan nan nan nan nan nan nan nan nan nan nan nan nan nan nan nan nan nan nan nan nan nan nan nan nan nan nan nan nan nan nan nan nan nan nan nan nan nan nan nan nan nan nan nan nan nan nan nan nan nan nan nan nan nan nan nan nan nan nan nan nan nan nan
nan nan nan nan nan nan nan nan nan nan nan nan nan nan nan nan nan nan nan nan nan nan nan nan nan nan nan nan nan nan nan nan nan nan nan nan nan nan nan nan nan nan nan nan nan nan nan nan nan nan nan nan nan nan nan nan nan nan nan nan nan nan nan nan nan nan nan nan nan nan nan nan nan nan nan nan nan nan nan nan nan nan nan nan nan
nan nan nan nan nan nan nan nan nan nan nan nan nan nan nan nan nan nan nan nan nan nan nan nan nan nan nan nan nan nan nan nan nan nan nan nan nan nan nan nan nan nan nan nan nan nan nan nan nan nan nan nan nan nan nan nan nan nan nan nan nan nan nan nan nan nan nan nan nan nan nan nan nan nan nan nan nan nan nan nan nan nan nan nan nan
Wind_Direction
317 318 317 318 321 323 323 322 323 323 324 324 324 324 324 325 328 328 324 320 314 311 313 314 317 318 320 318 315 309 305 300 296 293 288 281 275 269 261 256 256 255 254 250 250 250 247 241 238 240 238 242 246 246 243 242 239 234 232 232 233 236 238 nan nan 222 227 232 228 226 231 236 239 241 236 238 238 242 243 239 240 242 243 242 242
318 318 318 318 321 322 324 324 323 324 325 324 324 324 325 325 327 328 327 321 315 312 312 313 315 318 319 318 315 310 306 302 297 291 286 280 275 272 266 259 254 249 245 242 242 246 246 242 241 242 235 241 245 248 244 244 243 238 236 234 233 235 239 239 232 224 221 232 233 231 230 237 238 240 237 238 239 240 242 241 239 242 243 242 242
316 318 318 319 322 322 323 324 325 326 325 323 323 324 326 327 327 328 326 321 316 313 312 313 314 315 316 318 318 314 306 302 298 292 288 286 280 273 266 260 254 248 242 239 237 237 236 238 239 240 236 236 240 245 244 243 244 242 238 235 232 233 236 239 234 227 222 226 234 234 235 239 241 239 239 239 239 239 239 239 239 239 239 241 240
318 319 320 321 322 321 323 324 325 325 324 322 323 324 326 328 328 329 326 321 318 316 317 316 314 313 314 319 322 318 309 303 301 296 295 295 288 275 265 258 253 247 242 240 236 235 234 232 234 236 237 237 237 240 245 245 245 244 241 236 233 232 236 238 237 232 227 223 232 237 237 238 240 238 236 239 243 241 237 238 239 238 238 240 239
318 320 321 322 322 321 323 324 325 325 325 323 324 325 326 328 328 329 326 322 320 319 319 318 316 314 314 318 322 320 313 307 306 303 299 298 292 278 267 259 253 250 247 242 235 232 229 227 227 230 234 240 237 238 243 248 246 244 242 238 235 232 234 237 237 236 230 225 228 236 238 237 236 237 239 240 244 243 239 237 237 236 236 237 237
319 320 321 322 322 323 323 324 326 326 325 325 325 325 325 328 329 328 326 322 320 320 321 318 315 315 315 318 321 322 318 312 310 310 303 294 286 276 263 254 250 249 246 243 234 228 226 223 223 226 228 232 236 240 243 244 243 242 242 240 237 234 234 235 238 237 234 230 228 232 237 237 236 236 238 243 244 244 242 240 238 236 234 235 236
320 321 323 323 322 322 323 325 325 326 325 325 324 324 326 327 329 327 323 321 319 319 319 319 316 315 317 319 320 322 320 315 312 315 310 299 291 286 269 257 252 250 245 239 230 223 220 217 219 222 225 229 234 239 242 243 241 240 240 241 239 238 236 235 238 238 236 234 232 234 236 238 236 234 238 241 241 242 243 240 239 238 233 232 234
321 322 322 322 322 323 324 325 325 325 325 324 324 324 325 327 329 327 323 320 318 318 317 316 315 315 318 320 320 322 322 318 315 313 308 301 296 293 286 266 257 254 243 233 225 nan 215 214 216 219 224 229 236 238 241 243 243 241 240 240 241 242 239 237 238 239 238 237 236 237 239 239 238 237 236 239 240 238 239 238 235 235 232 233 235
321 322 321 321 323 323 323 323 323 324 324 323 323 323 324 326 328 327 324 320 316 316 315 314 314 316 320 321 320 321 322 319 316 309 301 294 290 297 302 276 254 246 234 225 nan nan 213 214 216 218 220 223 226 234 240 243 244 242 241 241 238 240 242 239 238 239 237 237 238 239 239 242 241 240 240 240 240 238 238 237 232 230 230 232 234
321 321 321 322 323 323 323 323 323 322 322 322 322 322 323 324 327 327 325 321 318 316 315 314 313 314 318 320 319 319 320 317 314 308 302 296 287 nan 310 285 257 nan nan nan nan nan nan 215 220 214 220 223 226 229 232 238 241 239 240 240 237 nan 240 238 236 238 239 239 240 241 242 242 243 243 240 239 239 237 233 234 233 233 232 228 228
320 320 321 322 322 322 321 322 321 322 322 321 321 322 321 321 325 328 326 322 319 317 315 313 311 311 316 319 320 320 321 317 315 309 308 294 289 297 302 288 nan nan nan nan nan nan nan nan nan 213 224 235 232 231 236 240 241 238 233 229 231 238 239 234 234 238 240 240 241 242 240 240 243 243 239 237 238 237 232 230 232 235 235 233 228
320 320 321 320 320 321 321 322 321 322 322 323 322 320 318 319 323 325 325 322 319 317 316 314 311 311 314 318 320 320 322 321 321 319 316 308 302 297 299 290 nan nan nan nan nan nan nan nan nan nan 218 217 218 230 239 243 241 240 236 232 232 236 237 236 236 237 241 241 240 241 241 238 237 239 238 237 236 233 230 230 233 236 237 235 229
319 320 320 319 320 320 321 322 323 323 324 323 320 318 317 317 319 322 323 322 320 319 317 314 311 310 313 316 319 320 323 323 326 324 324 322 313 nan 300 293 nan nan nan nan nan nan nan nan nan nan nan nan nan 217 nan 227 245 nan nan nan nan 232 235 nan nan 236 242 243 243 242 242 239 237 237 236 235 235 233 232 231 234 237 238 236 232
317 319 319 320 321 321 322 323 323 323 322 320 318 316 316 316 317 320 322 322 322 320 317 314 310 309 311 315 318 321 325 322 323 325 331 331 323 316 307 297 nan nan nan nan nan nan nan nan nan nan nan nan nan nan nan nan 221 238 nan nan nan nan nan nan nan nan nan 243 245 245 245 245 240 238 235 234 234 232 231 231 236 237 240 239 235
316 318 320 321 321 322 323 323 323 322 320 318 316 316 315 315 316 317 319 321 320 318 316 312 308 308 311 313 315 320 325 333 330 329 333 331 332 334 319 303 nan nan nan nan nan nan nan nan nan nan nan nan nan nan nan nan nan 222 236 nan nan nan nan nan nan nan nan nan 242 245 245 246 243 238 234 234 233 231 229 231 237 238 238 238 237
317 319 321 322 323 323 323 322 321 319 317 316 315 315 313 313 315 316 318 319 318 317 316 314 311 310 311 312 312 317 321 328 330 327 329 333 338 337 328 314 310 nan nan nan nan nan nan nan nan nan nan nan nan nan nan nan nan nan nan 235 238 nan nan nan nan nan nan 249 245 241 238 239 240 236 235 233 233 232 229 228 233 238 239 240 238
319 321 322 322 322 322 321 321 319 318 316 315 315 313 311 311 313 313 316 316 314 315 314 312 310 310 310 311 312 314 320 327 329 328 332 335 338 338 335 324 319 nan nan nan nan nan nan nan nan nan nan nan nan nan nan nan nan nan nan 231 235 234 nan nan nan nan nan nan nan nan nan nan nan 240 237 234 231 231 229 230 238 243 244 242 240
320 320 321 321 321 320 319 318 318 317 316 316 315 312 311 311 312 313 316 313 311 312 313 311 309 308 309 310 308 309 314 322 328 331 335 340 342 341 340 336 328 329 nan nan nan nan nan nan nan nan nan nan nan nan nan nan nan nan nan nan nan nan 237 241 244 nan nan nan nan nan nan nan nan 242 238 234 233 232 231 230 238 245 246 245 244
318 320 320 319 318 318 318 318 318 318 317 316 314 312 311 310 311 313 315 313 311 313 313 310 307 306 307 308 310 313 311 318 327 334 338 340 341 343 345 339 330 332 nan nan nan nan nan nan nan nan nan nan nan nan nan nan nan nan 239 nan nan nan 238 246 248 nan nan nan nan nan nan nan nan 237 234 nan 236 234 231 233 237 244 247 249 248
318 317 318 317 317 318 318 319 319 318 316 315 314 313 311 311 311 311 311 310 308 308 310 308 307 305 303 306 304 306 307 310 320 331 336 339 342 344 346 340 325 326 335 327 nan nan nan nan nan nan nan nan nan nan nan nan nan nan 229 241 nan nan 237 244 252 254 257 nan nan nan nan 236 233 233 231 nan nan nan 234 235 239 244 248 249 249
315 316 317 318 318 319 319 319 320 318 316 316 314 313 312 311 309 309 308 306 307 308 305 303 304 305 304 302 302 303 303 304 312 322 330 337 340 342 344 343 330 324 330 350 nan nan nan nan nan nan nan nan nan nan nan nan nan nan 225 219 nan 228 235 246 255 nan 258 nan nan nan nan 234 231 229 226 226 nan 230 233 236 239 242 246 247 246
315 316 318 318 318 318 319 319 318 317 314 311 311 307 305 307 307 307 306 305 306 304 298 298 299 303 305 304 303 303 305 313 308 312 322 331 339 343 342 343 333 325 328 349 358 317 nan 252 nan nan nan nan nan nan nan nan nan nan nan nan nan nan nan 249 254 256 253 254 nan 242 nan 232 229 227 225 226 229 231 234 237 240 241 243 244 243
316 316 316 317 317 318 317 318 315 308 306 308 309 308 300 293 294 304 306 303 304 302 296 293 297 301 304 307 306 305 303 306 314 310 313 321 332 339 346 348 345 331 331 345 356 349 346 281 249 221 nan nan nan nan nan nan nan nan nan nan nan nan nan 250 253 255 253 251 244 nan 237 234 231 228 226 228 231 232 233 236 238 239 240 240 240
314 314 315 316 316 316 315 312 311 312 314 313 311 307 298 296 294 296 294 299 302 302 295 292 294 297 298 301 305 305 305 307 312 318 308 309 nan nan nan nan 343 336 335 338 345 349 4 347 240 199 nan nan nan nan nan nan nan nan nan nan nan nan 213 215 232 251 nan 245 241 238 235 233 231 231 230 229 231 233 232 234 236 237 239 241 237
312 313 315 315 314 313 312 312 313 314 313 311 307 304 301 298 293 287 289 293 298 297 294 291 290 293 298 299 302 306 306 307 308 309 307 nan nan nan nan nan nan 337 334 330 328 335 1 50 105 158 nan nan nan 175 nan nan nan nan nan nan nan nan nan 212 220 229 nan 241 238 232 233 231 229 230 232 232 233 233 233 236 239 238 238 239 240
313 314 314 313 311 311 310 309 310 311 312 311 308 303 300 293 287 283 284 284 287 289 287 289 288 291 295 294 295 300 304 306 304 302 301 303 313 nan nan nan nan nan nan 339 338 340 359 21 56 nan nan 200 nan 190 197 nan nan nan nan nan nan nan nan nan nan nan nan nan nan nan nan 227 229 229 234 234 233 nan 236 nan nan 242 241 241 241
313 313 312 310 309 308 307 306 308 310 310 306 305 305 301 295 287 280 282 284 284 284 282 285 287 289 291 290 292 296 300 302 299 292 nan nan 305 nan nan 319 nan nan 334 332 326 318 318 335 350 nan nan nan 192 186 185 nan 190 nan nan nan nan nan nan nan nan nan nan nan nan 224 nan nan nan nan nan nan nan nan nan nan nan 243 239 238 241
312 311 308 308 307 306 304 304 305 307 309 310 308 303 299 293 285 281 279 279 281 281 281 282 284 287 286 286 288 290 289 292 289 nan nan nan nan nan nan nan nan nan 328 331 nan 331 321 321 331 322 297 252 220 207 198 188 186 189 186 nan nan nan nan nan nan nan nan nan nan nan nan nan nan nan nan nan nan nan nan nan nan nan 247 245 247
310 308 308 307 306 305 304 304 304 305 308 309 306 302 295 286 277 275 272 nan nan nan 279 282 nan nan nan nan 281 283 282 281 nan nan nan nan nan nan nan nan nan nan nan nan nan 340 321 311 309 308 293 271 234 221 208 195 191 194 193 186 187 196 nan nan nan nan nan nan nan nan nan nan nan nan nan nan nan nan nan nan nan nan nan nan nan
309 308 307 306 nan nan 306 304 301 304 304 301 297 294 283 nan 268 277 nan nan nan nan nan nan nan 283 nan nan nan nan nan nan nan nan nan nan nan nan nan nan nan nan nan nan nan 334 317 309 306 nan nan 291 250 228 nan nan nan 200 199 191 189 197 205 nan nan nan nan nan nan nan nan nan nan nan nan nan nan nan nan nan nan nan nan nan nan
307 307 306 308 307 306 306 304 305 305 303 299 294 290 286 nan nan nan nan nan nan nan nan 289 294 291 nan nan nan nan nan nan nan nan nan nan nan nan nan nan nan nan nan nan 330 314 310 307 304 nan nan nan nan nan nan nan nan 201 199 195 196 198 201 204 206 207 nan nan nan nan nan nan nan nan nan nan nan nan nan nan nan nan nan nan nan
308 309 309 306 306 306 306 306 307 307 305 300 290 281 273 276 nan nan nan nan nan nan nan 275 277 nan nan nan nan nan nan nan nan nan nan nan nan nan nan nan nan nan nan nan 315 300 nan nan nan nan nan nan nan nan nan nan nan 214 204 199 200 202 202 203 200 202 205 209 210 nan nan nan nan nan nan nan nan nan nan nan nan nan nan nan nan
306 nan 303 305 308 307 307 308 310 309 306 299 286 269 263 269 281 284 nan nan nan 285 274 269 nan nan nan nan nan nan nan nan nan nan nan nan nan nan nan nan nan nan nan nan nan nan nan nan nan nan nan nan nan nan nan nan nan nan nan 210 208 206 206 203 199 202 204 206 208 209 210 214 214 nan nan nan nan nan nan nan nan nan nan nan nan
nan 303 303 305 307 306 305 308 310 310 304 290 263 249 250 257 263 273 nan nan nan nan nan nan nan nan nan nan nan nan nan nan nan nan nan nan nan nan nan nan nan nan nan nan nan nan nan nan nan nan nan nan nan nan nan nan nan nan nan nan nan 217 212 208 210 207 208 210 213 214 215 216 214 212 nan nan nan nan nan nan nan nan nan nan nan
302 303 305 305 304 302 302 304 308 309 301 283 258 252 253 nan nan nan nan nan nan nan nan nan nan nan nan nan nan nan nan nan nan nan nan nan nan nan nan nan nan nan nan nan nan nan nan nan nan nan nan nan nan nan nan nan nan nan nan nan nan nan nan 224 224 219 217 216 nan nan nan 219 219 218 216 nan nan nan nan nan nan 230 nan nan nan
302 302 302 302 299 299 299 299 300 301 nan nan nan nan nan nan nan nan nan nan nan nan nan nan nan nan nan nan nan nan nan nan nan nan nan nan nan nan nan nan nan nan nan nan nan nan nan nan nan nan nan nan nan nan nan nan nan nan nan nan nan nan nan nan nan nan 229 229 nan nan 220 nan 225 225 227 228 nan nan 227 230 nan nan nan nan nan
298 298 299 298 296 296 295 293 nan nan nan nan nan nan nan nan nan nan nan nan nan nan nan nan nan nan nan nan nan nan nan nan nan nan nan nan nan nan nan nan nan nan nan nan nan nan nan nan nan nan nan nan nan nan nan nan nan nan nan nan nan nan nan nan nan nan nan nan 236 232 nan nan nan nan 228 236 239 240 nan nan nan nan nan nan nan
293 295 296 296 295 293 294 nan nan nan nan nan nan nan nan nan nan nan nan nan nan nan nan nan nan nan nan nan nan nan nan nan nan nan nan nan nan nan nan nan nan nan nan nan nan nan nan nan nan nan nan nan nan nan nan nan nan nan nan nan nan nan nan nan nan nan nan nan nan nan nan nan nan nan nan 231 235 nan nan 236 239 236 nan nan nan
290 nan nan nan nan 292 nan nan nan 284 nan nan nan nan nan nan nan nan nan nan nan nan nan nan nan nan nan nan nan nan nan nan nan nan nan nan nan nan nan nan nan nan nan nan nan nan nan nan nan nan nan nan nan nan nan nan nan nan nan nan nan nan nan nan nan nan nan nan nan nan nan nan nan nan nan nan nan 229 230 229 232 236 237 237 240
292 291 nan nan nan nan nan nan nan nan nan nan nan nan nan nan nan nan nan nan nan nan nan nan nan nan nan nan nan nan nan nan nan nan nan nan nan nan nan nan nan nan nan nan nan nan nan nan nan nan nan nan nan nan nan nan nan nan nan nan nan nan nan nan nan nan nan nan nan nan nan nan nan nan nan nan nan nan nan 229 231 nan nan nan 234
nan nan nan nan nan nan nan nan nan nan nan nan nan nan nan nan nan nan nan nan nan nan nan nan nan nan nan nan nan nan nan nan nan nan nan nan nan nan nan nan nan nan nan nan nan nan nan nan nan nan nan nan nan nan nan nan nan nan nan nan nan nan nan nan nan nan nan nan nan nan nan nan nan nan nan nan 255 251 nan nan 242 241 nan nan nan
nan nan nan nan nan nan nan nan nan nan nan nan nan nan nan nan nan nan nan nan nan nan nan nan nan nan nan nan nan nan nan nan nan nan nan nan nan nan nan nan nan nan nan nan nan nan nan nan nan nan nan nan nan nan nan nan nan nan nan nan nan nan nan nan nan nan nan nan nan nan nan nan nan nan nan nan nan 260 258 255 253 nan 255 nan nan
nan nan nan nan nan nan nan nan nan nan nan nan nan nan nan nan nan nan nan nan nan nan nan nan nan nan nan nan nan nan nan nan nan nan nan nan nan nan nan nan nan nan nan nan nan nan nan nan nan nan nan nan nan nan nan nan nan nan nan nan nan nan nan nan nan nan nan nan nan nan nan nan nan nan nan nan nan nan nan 258 258 257 257 259 261
nan nan nan nan nan nan nan nan nan nan nan nan nan nan nan nan nan nan nan nan nan nan nan nan nan nan nan nan nan nan nan nan nan nan nan nan nan nan nan nan nan nan nan nan nan nan nan nan nan nan nan nan nan nan nan nan nan nan nan nan nan nan nan nan nan nan nan nan nan nan nan nan nan nan nan nan nan nan nan nan nan nan nan nan nan
nan nan nan nan nan nan nan nan nan nan nan nan nan nan nan nan nan nan nan nan nan nan nan nan nan nan nan nan nan nan nan nan nan nan nan nan nan nan nan nan nan nan nan nan nan nan nan nan nan nan nan nan nan nan nan nan nan nan nan nan nan nan nan nan nan nan nan nan nan nan nan nan nan nan nan nan nan nan nan nan nan nan nan nan nan
nan nan nan nan nan nan nan nan nan nan nan nan nan nan nan nan nan nan nan nan nan nan nan nan nan nan nan nan nan nan nan nan nan nan nan nan nan nan nan nan nan nan nan nan nan nan nan nan nan nan nan nan nan nan nan nan nan nan nan nan nan nan nan nan nan nan nan nan nan nan nan nan nan nan nan nan nan nan nan nan nan nan nan nan nan
nan nan nan nan nan nan nan nan nan nan nan nan nan nan nan nan nan nan nan nan nan nan nan nan nan nan nan nan nan nan nan nan nan nan nan nan nan nan nan nan nan nan nan nan nan nan nan nan nan nan nan nan nan nan nan nan nan nan nan nan nan nan nan nan nan nan nan nan nan nan nan nan nan nan nan nan nan nan nan nan nan nan nan nan nan
nan nan nan nan nan nan nan nan nan nan nan nan nan nan nan nan nan nan nan nan nan nan nan nan nan nan nan nan nan nan nan nan nan nan nan nan nan nan nan nan nan nan nan nan nan nan nan nan nan nan nan nan nan nan nan nan nan nan nan nan nan nan nan nan nan nan nan nan nan nan nan nan nan nan nan nan nan nan nan nan nan nan nan nan nan
nan nan nan nan nan nan nan nan nan nan nan nan nan nan nan nan nan nan nan nan nan nan nan nan nan nan nan nan nan nan nan nan nan nan nan nan nan nan nan nan nan nan nan nan nan nan nan nan nan nan nan nan nan nan nan nan nan nan nan nan nan nan nan nan nan nan nan nan nan nan nan nan nan nan nan nan nan nan nan nan nan nan nan nan nan
nan nan nan nan nan nan nan nan nan nan nan nan nan nan nan nan nan nan nan nan nan nan nan nan nan nan nan nan nan nan nan nan nan nan nan nan nan nan nan nan nan nan nan nan nan nan nan nan nan nan nan nan nan nan nan nan nan nan nan nan nan nan nan nan nan nan nan nan nan nan nan nan nan nan nan nan nan nan nan nan nan nan nan nan nan
nan nan nan nan nan nan nan nan nan nan nan nan nan nan nan nan nan nan nan nan nan nan nan nan nan nan nan nan nan nan nan nan nan nan nan nan nan nan nan nan nan nan nan nan nan nan nan nan nan nan nan nan nan nan nan nan nan nan nan nan nan nan nan nan nan nan nan nan nan nan nan nan nan nan nan nan nan nan nan nan nan nan nan nan nan